.
WxDataArchive / Data Records for 2007-04-09
2007-04-08 April 2007 2007-04-10

Data Records for Monday, 09 April 2007

Time	Temp	Chill	HIndex	Humid	Dewpt	 Wind 	HiWind	WindDir	Rain 	Barom 
-----	----	-----	------	-----	-----	------	------	-------	-----	----- 
00:00	31.0	31.0	31.0	69	22.0	0	0	---	0.00	30.079 
00:05	31.0	31.0	31.0	68	21.7	0	0	---	0.00	30.076 
00:10	31.0	31.0	31.0	68	21.7	0	0	---	0.00	30.077 
00:15	31.0	31.0	31.0	69	22.0	0	0	---	0.00	30.077 
00:20	31.0	31.0	31.0	68	21.7	0	0	---	0.00	30.078 
00:25	30.9	30.9	30.9	68	21.6	0	0	---	0.00	30.077 
00:30	30.9	30.9	30.9	68	21.6	0	0	---	0.00	30.077 
00:35	30.9	30.9	30.9	68	21.6	0	0	---	0.00	30.077 
00:40	30.9	30.9	30.9	69	21.9	0	0	---	0.00	30.076 
00:45	30.7	30.7	30.7	68	21.4	0	0	---	0.00	30.076 
00:50	30.7	30.7	30.7	68	21.4	0	0	---	0.00	30.076 
00:55	30.9	30.9	30.9	68	21.6	0	0	---	0.00	30.075 
01:00	30.9	30.9	30.9	68	21.6	0	0	---	0.00	30.076 
01:05	30.9	30.9	30.9	68	21.6	0	0	---	0.00	30.076 
01:10	30.9	30.9	30.9	68	21.6	0	0	---	0.00	30.076 
01:15	30.9	30.9	30.9	68	21.6	0	0	---	0.00	30.076 
01:20	30.9	30.9	30.9	69	21.9	0	0	---	0.00	30.076 
01:25	30.9	30.9	30.9	70	22.3	0	0	---	0.00	30.075 
01:30	30.7	30.7	30.7	71	22.4	0	1	292	0.00	30.076 
01:35	30.7	30.7	30.7	71	22.4	0	0	---	0.00	30.076 
01:40	30.7	30.7	30.7	71	22.4	0	0	---	0.00	30.076 
01:45	30.7	30.7	30.7	70	22.1	0	0	---	0.00	30.075 
01:50	30.7	30.7	30.7	70	22.1	0	1	292	0.00	30.074 
01:55	30.7	30.7	30.7	70	22.1	0	0	---	0.00	30.074 
02:00	30.7	30.7	30.7	70	22.1	0	0	---	0.00	30.072 
02:05	30.7	30.7	30.7	70	22.1	0	0	---	0.00	30.068 
02:10	30.9	30.9	30.9	69	21.9	0	0	---	0.00	30.065 
02:15	30.9	30.9	30.9	70	22.3	0	0	---	0.00	30.065 
02:20	30.9	30.9	30.9	70	22.3	0	0	---	0.00	30.066 
02:25	30.9	30.9	30.9	71	22.6	0	0	---	0.00	30.066 
02:30	30.9	30.9	30.9	71	22.6	0	0	---	0.00	30.065 
02:35	30.9	30.9	30.9	71	22.6	0	0	---	0.00	30.064 
02:40	30.9	30.9	30.9	71	22.6	0	1	292	0.00	30.063 
02:45	30.9	30.9	30.9	71	22.6	0	0	---	0.00	30.062 
02:50	30.9	30.9	30.9	71	22.6	0	0	---	0.00	30.063 
02:55	30.9	30.9	30.9	72	23.0	0	0	---	0.00	30.063 
03:00	30.9	30.9	30.9	72	23.0	0	0	---	0.00	30.062 
03:05	30.9	30.9	30.9	72	23.0	0	0	---	0.00	30.061 
03:10	30.9	30.9	30.9	73	23.3	0	0	---	0.00	30.060 
03:15	30.9	30.9	30.9	73	23.3	0	0	---	0.00	30.060 
03:20	30.9	30.9	30.9	73	23.3	0	0	---	0.00	30.060 
03:25	30.9	30.9	30.9	73	23.3	0	1	292	0.00	30.059 
03:30	30.9	30.9	30.9	73	23.3	0	1	292	0.00	30.059 
03:35	30.9	30.9	30.9	73	23.3	0	0	---	0.00	30.059 
03:40	30.9	30.9	30.9	73	23.3	0	0	---	0.00	30.060 
03:45	30.9	30.9	30.9	73	23.3	0	0	---	0.00	30.060 
03:50	30.9	30.9	30.9	73	23.3	0	0	---	0.00	30.060 
03:55	30.9	30.9	30.9	73	23.3	0	0	---	0.00	30.060 
04:00	30.9	30.9	30.9	74	23.6	0	0	---	0.00	30.060 
04:05	30.9	30.9	30.9	74	23.6	0	0	---	0.00	30.060 
04:10	30.7	30.7	30.7	74	23.4	0	0	---	0.00	30.060 
04:15	30.7	30.7	30.7	74	23.4	0	0	---	0.00	30.060 
04:20	30.7	30.7	30.7	74	23.4	0	0	---	0.00	30.060 
04:25	30.7	30.7	30.7	74	23.4	0	0	---	0.00	30.061 
04:30	30.7	30.7	30.7	74	23.4	0	1	292	0.00	30.062 
04:35	30.9	30.9	30.9	74	23.6	0	1	292	0.00	30.062 
04:40	30.9	30.9	30.9	74	23.6	0	0	---	0.00	30.061 
04:45	30.9	30.9	30.9	74	23.6	0	1	292	0.00	30.061 
04:50	30.9	30.9	30.9	73	23.3	0	0	---	0.00	30.061 
04:55	31.0	31.0	31.0	73	23.4	0	0	---	0.00	30.060 
05:00	31.0	31.0	31.0	73	23.4	0	0	---	0.00	30.060 
05:05	31.0	31.0	31.0	73	23.4	0	0	---	0.00	30.059 
05:10	31.0	31.0	31.0	74	23.7	0	0	---	0.00	30.059 
05:15	31.0	31.0	31.0	74	23.7	0	0	---	0.00	30.059 
05:20	30.9	30.9	30.9	74	23.6	0	0	---	0.00	30.060 
05:25	30.9	30.9	30.9	74	23.6	0	0	---	0.00	30.060 
05:30	30.9	30.9	30.9	74	23.6	0	0	---	0.00	30.060 
05:35	30.9	30.9	30.9	74	23.6	0	1	292	0.00	30.060 
05:40	30.9	30.9	30.9	74	23.6	0	0	---	0.00	30.060 
05:45	30.9	30.9	30.9	74	23.6	0	0	---	0.00	30.061 
05:50	30.9	30.9	30.9	74	23.6	0	0	---	0.00	30.061 
05:55	30.9	30.9	30.9	74	23.6	0	0	---	0.00	30.061 
06:00	30.9	30.9	30.9	74	23.6	0	0	---	0.00	30.060 
06:05	30.9	30.9	30.9	74	23.6	0	0	---	0.00	30.064 
06:10	30.9	30.9	30.9	74	23.6	0	0	---	0.00	30.063 
06:15	30.9	30.9	30.9	74	23.6	0	1	292	0.00	30.062 
06:20	30.9	30.9	30.9	73	23.3	0	1	292	0.00	30.062 
06:25	31.0	31.0	31.0	73	23.4	0	1	292	0.00	30.062 
06:30	30.9	30.9	30.9	73	23.3	0	0	---	0.00	30.063 
06:35	30.7	30.7	30.7	73	23.1	0	0	---	0.00	30.064 
06:40	30.6	30.6	30.6	73	23.0	0	0	---	0.00	30.067 
06:45	30.3	30.3	30.3	74	23.0	0	0	---	0.00	30.068 
06:50	30.1	30.1	30.1	75	23.2	0	0	---	0.00	30.068 
06:55	30.1	30.1	30.1	75	23.2	0	0	---	0.00	30.068 
07:00	30.1	30.1	30.1	76	23.5	0	0	---	0.00	30.070 
07:05	30.4	30.4	30.4	76	23.8	0	0	---	0.00	30.072 
07:10	30.7	30.7	30.7	76	24.0	0	0	---	0.00	30.074 
07:15	31.0	31.0	31.0	77	24.7	0	0	---	0.00	30.074 
07:20	31.3	31.3	31.3	76	24.6	0	0	---	0.00	30.074 
07:25	31.5	31.5	31.5	75	24.5	0	0	---	0.00	30.076 
07:30	31.8	31.8	31.8	74	24.5	0	0	---	0.00	30.077 
07:35	32.2	32.2	32.2	74	24.9	0	1	292	0.00	30.078 
07:40	32.4	32.4	32.4	73	24.7	0	0	---	0.00	30.079 
07:45	32.7	32.7	32.7	73	25.0	0	0	---	0.00	30.078 
07:50	32.9	32.9	32.9	72	24.9	0	1	292	0.00	30.082 
07:55	33.2	33.2	33.2	72	25.2	0	1	292	0.00	30.085 
08:00	33.4	33.4	33.4	69	24.3	0	2	292	0.00	30.087 
08:05	33.5	33.5	33.5	68	24.1	0	1	292	0.00	30.088 
08:10	33.5	33.5	33.5	68	24.1	0	1	292	0.00	30.089 
08:15	33.7	33.7	33.7	68	24.3	0	1	292	0.00	30.090 
08:20	33.8	33.8	33.8	66	23.7	0	2	292	0.00	30.090 
08:25	33.8	33.8	33.8	66	23.7	1	2	292	0.00	30.091 
08:30	34.0	34.0	34.0	65	23.5	1	3	292	0.00	30.091 
08:35	34.1	34.1	34.1	66	23.9	1	3	90	0.00	30.092 
08:40	34.1	34.1	34.1	67	24.3	0	2	90	0.00	30.093 
08:45	34.3	34.3	34.3	67	24.5	1	3	112	0.00	30.094 
08:50	34.3	34.3	34.3	67	24.5	0	2	112	0.00	30.095 
08:55	34.4	34.4	34.4	69	25.3	1	4	112	0.00	30.096 
09:00	34.4	34.4	34.4	70	25.6	0	2	112	0.00	30.094 
09:05	34.4	34.4	34.4	71	26.0	1	3	112	0.00	30.095 
09:10	34.6	34.6	34.6	70	25.8	0	2	202	0.00	30.093 
09:15	34.9	34.9	34.9	70	26.1	0	2	202	0.00	30.092 
09:20	35.6	35.6	35.6	73	27.8	0	2	135	0.00	30.091 
09:25	36.3	36.3	36.3	69	27.1	0	1	135	0.00	30.089 
09:30	36.6	36.6	36.6	67	26.7	1	3	248	0.00	30.089 
09:35	36.9	36.9	36.9	64	25.9	1	3	248	0.00	30.088 
09:40	37.0	37.0	37.0	65	26.3	1	3	248	0.00	30.088 
09:45	37.5	37.5	37.5	64	26.4	1	4	248	0.00	30.085 
09:50	37.8	37.8	37.8	63	26.4	1	2	248	0.00	30.085 
09:55	38.0	38.0	38.0	64	26.9	1	3	248	0.00	30.084 
10:00	38.2	38.2	38.2	64	27.1	2	5	112	0.00	30.083 
10:05	38.0	38.0	38.0	62	26.2	1	3	90	0.00	30.084 
10:10	37.8	37.8	37.8	61	25.6	1	4	270	0.00	30.084 
10:15	37.5	37.5	37.5	62	25.7	1	3	270	0.00	30.084 
10:20	37.6	37.6	37.6	62	25.8	0	2	270	0.00	30.083 
10:25	37.6	37.6	37.6	62	25.8	1	5	248	0.00	30.084 
10:30	37.8	37.8	37.8	64	26.7	0	2	225	0.00	30.084 
10:35	37.8	37.8	37.8	62	26.0	0	3	248	0.00	30.082 
10:40	37.9	37.9	37.9	62	26.1	1	2	248	0.00	30.081 
10:45	37.8	37.8	37.8	61	25.6	1	3	248	0.00	30.081 
10:50	37.8	37.8	37.8	61	25.6	2	3	248	0.00	30.082 
10:55	37.5	37.5	37.5	63	26.1	1	3	248	0.00	30.082 
11:00	37.2	37.2	37.2	63	25.8	1	3	248	0.00	30.085 
11:05	37.0	37.0	37.0	65	26.3	1	4	248	0.00	30.083 
11:10	37.0	37.0	37.0	66	26.7	1	5	248	0.00	30.083 
11:15	37.3	37.3	37.3	67	27.4	0	3	248	0.00	30.080 
11:20	37.6	37.6	37.6	66	27.3	0	2	248	0.00	30.080 
11:25	37.9	37.9	37.9	64	26.8	1	4	248	0.00	30.078 
11:30	37.8	37.8	37.8	62	26.0	1	5	248	0.00	30.076 
11:35	37.5	37.5	37.5	63	26.1	2	6	248	0.00	30.075 
11:40	37.3	37.3	37.3	65	26.6	2	4	248	0.00	30.075 
11:45	37.0	37.0	37.0	66	26.7	1	3	225	0.00	30.074 
11:50	37.2	37.2	37.2	69	28.0	1	2	225	0.00	30.074 
11:55	37.3	37.3	37.3	72	29.1	0	2	315	0.00	30.073 
12:00	36.9	36.9	36.9	73	29.1	1	3	0	0.00	30.072 
12:05	36.8	36.8	36.8	74	29.3	0	1	0	0.00	30.071 
12:10	36.8	36.8	36.8	74	29.3	0	2	0	0.01	30.069 
12:15	36.9	36.9	36.9	73	29.1	0	1	0	0.00	30.068 
12:20	37.2	37.2	37.2	70	28.3	1	3	248	0.00	30.066 
12:25	37.5	37.5	37.5	69	28.3	1	4	248	0.00	30.066 
12:30	37.5	37.5	37.5	67	27.6	2	4	248	0.00	30.066 
12:35	37.2	37.2	37.2	71	28.7	2	6	248	0.00	30.069 
12:40	36.0	36.0	36.0	76	29.2	2	4	248	0.00	30.072 
12:45	35.3	35.3	35.3	78	29.1	1	3	248	0.00	30.071 
12:50	34.9	34.9	34.9	80	29.4	1	3	248	0.00	30.069 
12:55	34.9	34.9	34.9	81	29.7	0	2	248	0.00	30.068 
13:00	35.0	35.0	35.0	82	30.1	0	2	248	0.00	30.065 
13:05	35.5	35.5	35.5	81	30.3	1	4	248	0.00	30.064 
13:10	35.9	35.9	35.9	78	29.7	1	4	248	0.00	30.062 
13:15	36.3	36.3	36.3	78	30.1	0	3	248	0.00	30.060 
13:20	36.8	36.8	36.8	76	30.0	0	3	248	0.00	30.058 
13:25	37.0	37.0	37.0	76	30.2	1	3	248	0.00	30.057 
13:30	37.3	37.3	37.3	73	29.5	1	4	248	0.00	30.057 
13:35	37.5	37.5	37.5	73	29.6	0	2	225	0.00	30.057 
13:40	37.8	37.8	37.8	72	29.6	1	4	248	0.00	30.056 
13:45	37.8	37.8	37.8	72	29.6	1	2	248	0.00	30.056 
13:50	37.9	37.9	37.9	73	30.0	1	4	225	0.00	30.056 
13:55	37.8	37.8	37.8	69	28.6	1	3	225	0.00	30.054 
14:00	37.5	37.5	37.5	70	28.6	1	2	225	0.00	30.052 
14:05	37.6	37.6	37.6	71	29.1	1	4	248	0.00	30.052 
14:10	37.8	37.8	37.8	71	29.3	1	3	248	0.00	30.050 
14:15	37.9	37.9	37.9	73	30.0	1	4	248	0.00	30.050 
14:20	37.8	37.8	37.8	73	29.9	1	4	248	0.00	30.047 
14:25	37.8	37.8	37.8	74	30.3	0	3	248	0.00	30.043 
14:30	38.0	38.0	38.0	73	30.1	0	1	248	0.00	30.042 
14:35	38.2	38.2	38.2	71	29.6	1	4	248	0.00	30.041 
14:40	38.5	38.5	38.5	69	29.2	1	3	248	0.00	30.041 
14:45	38.3	38.3	38.3	69	29.0	2	5	248	0.00	30.041 
14:50	37.9	37.9	37.9	69	28.7	3	7	248	0.00	30.041 
14:55	37.8	37.8	37.8	70	28.9	2	4	248	0.00	30.041 
15:00	37.9	37.9	37.9	69	28.7	1	4	248	0.00	30.039 
15:05	37.9	37.9	37.9	66	27.6	2	5	248	0.00	30.038 
15:10	37.9	37.9	37.9	65	27.2	2	5	248	0.00	30.037 
15:15	38.2	38.2	38.2	64	27.1	1	5	248	0.00	30.033 
15:20	38.3	38.3	38.3	63	26.8	1	4	248	0.00	30.029 
15:25	38.6	38.6	38.6	62	26.7	1	3	248	0.00	30.028 
15:30	38.9	38.9	38.9	63	27.4	0	2	248	0.00	30.026 
15:35	39.3	39.3	39.3	60	26.6	1	3	248	0.00	30.025 
15:40	39.6	39.6	39.6	60	26.9	0	4	248	0.00	30.025 
15:45	39.5	39.5	39.5	67	29.5	1	7	292	0.00	30.025 
15:50	38.6	38.6	38.6	71	30.0	1	7	270	0.00	30.026 
15:55	37.9	37.9	37.9	73	30.0	1	3	292	0.00	30.028 
16:00	37.8	37.8	37.8	73	29.9	0	2	315	0.00	30.029 
16:05	37.9	37.9	37.9	72	29.7	0	2	315	0.00	30.028 
16:10	38.2	38.2	38.2	69	28.9	1	5	292	0.00	30.030 
16:15	38.2	38.2	38.2	69	28.9	2	6	248	0.00	30.029 
16:20	38.0	38.0	38.0	70	29.1	2	5	270	0.00	30.029 
16:25	37.8	37.8	37.8	70	28.9	0	2	292	0.00	30.031 
16:30	37.6	37.6	37.6	71	29.1	1	3	315	0.00	30.031 
16:35	37.6	37.6	37.6	70	28.7	1	3	315	0.00	30.032 
16:40	37.8	37.8	37.8	71	29.3	0	2	315	0.00	30.035 
16:45	37.9	37.9	37.9	70	29.0	1	3	292	0.00	30.034 
16:50	37.6	37.6	37.6	71	29.1	1	5	338	0.00	30.033 
16:55	37.8	37.8	37.8	72	29.6	0	1	338	0.00	30.029 
17:00	37.8	37.8	37.8	70	28.9	0	2	338	0.00	30.027 
17:05	37.9	37.9	37.9	74	30.4	1	2	338	0.00	30.027 
17:10	37.8	37.8	37.8	76	30.9	1	2	0	0.00	30.027 
17:15	37.9	37.9	37.9	74	30.4	0	1	0	0.00	30.027 
17:20	37.8	37.8	37.8	73	29.9	0	1	0	0.00	30.027 
17:25	37.9	37.9	37.9	73	30.0	0	1	0	0.00	30.028 
17:30	37.9	37.9	37.9	72	29.7	0	1	0	0.00	30.027 
17:35	38.0	38.0	38.0	73	30.1	0	0	---	0.00	30.027 
17:40	38.0	38.0	38.0	71	29.4	0	0	---	0.00	30.027 
17:45	38.0	38.0	38.0	70	29.1	0	0	---	0.00	30.029 
17:50	38.0	38.0	38.0	69	28.7	0	1	0	0.00	30.031 
17:55	38.0	38.0	38.0	71	29.4	0	0	---	0.00	30.032 
18:00	38.0	38.0	38.0	71	29.4	0	1	0	0.00	30.033 
18:05	37.9	37.9	37.9	71	29.4	0	1	0	0.00	30.035 
18:10	37.8	37.8	37.8	70	28.9	0	1	0	0.00	30.033 
18:15	37.6	37.6	37.6	70	28.7	0	2	0	0.00	30.034 
18:20	37.5	37.5	37.5	69	28.3	0	1	315	0.00	30.033 
18:25	37.3	37.3	37.3	69	28.1	0	2	315	0.00	30.035 
18:30	37.3	37.3	37.3	68	27.7	0	1	315	0.00	30.035 
18:35	37.2	37.2	37.2	69	28.0	0	1	315	0.00	30.035 
18:40	37.0	37.0	37.0	69	27.8	0	1	315	0.01	30.036 
18:45	37.0	37.0	37.0	69	27.8	0	0	---	0.00	30.038 
18:50	36.9	36.9	36.9	69	27.7	0	0	---	0.00	30.039 
18:55	36.8	36.8	36.8	69	27.6	0	0	---	0.00	30.041 
19:00	36.6	36.6	36.6	70	27.8	0	1	315	0.00	30.040 
19:05	36.5	36.5	36.5	71	28.0	0	1	315	0.00	30.037 
19:10	36.5	36.5	36.5	71	28.0	0	0	---	0.00	30.036 
19:15	36.3	36.3	36.3	71	27.8	0	0	---	0.00	30.039 
19:20	36.2	36.2	36.2	72	28.1	0	0	---	0.00	30.039 
19:25	36.0	36.0	36.0	72	27.9	0	0	---	0.00	30.039 
19:30	35.9	35.9	35.9	72	27.8	0	0	---	0.00	30.039 
19:35	35.6	35.6	35.6	73	27.8	0	0	---	0.00	30.039 
19:40	35.5	35.5	35.5	74	28.0	0	0	---	0.00	30.039 
19:45	35.2	35.2	35.2	76	28.4	0	0	---	0.00	30.040 
19:50	35.0	35.0	35.0	78	28.8	0	0	---	0.00	30.041 
19:55	34.9	34.9	34.9	80	29.4	0	0	---	0.00	30.041 
20:00	34.7	34.7	34.7	81	29.5	0	0	---	0.00	30.042 
20:05	34.4	34.4	34.4	81	29.2	0	0	---	0.00	30.043 
20:10	34.3	34.3	34.3	81	29.1	0	0	---	0.00	30.044 
20:15	34.0	34.0	34.0	82	29.1	0	0	---	0.00	30.045 
20:20	33.8	33.8	33.8	82	28.9	0	0	---	0.00	30.046 
20:25	33.7	33.7	33.7	83	29.1	0	0	---	0.00	30.048 
20:30	33.5	33.5	33.5	84	29.2	0	0	---	0.00	30.050 
20:35	33.4	33.4	33.4	84	29.1	0	0	---	0.00	30.055 
20:40	33.2	33.2	33.2	84	28.9	0	0	---	0.00	30.056 
20:45	33.1	33.1	33.1	85	29.1	0	0	---	0.00	30.056 
20:50	33.1	33.1	33.1	85	29.1	0	0	---	0.00	30.057 
20:55	33.1	33.1	33.1	85	29.1	0	0	---	0.00	30.057 
21:00	33.1	33.1	33.1	86	29.4	0	0	---	0.00	30.058 
21:05	32.9	32.9	32.9	86	29.2	0	0	---	0.00	30.054 
21:10	32.9	32.9	32.9	86	29.2	0	0	---	0.00	30.054 
21:15	32.9	32.9	32.9	86	29.2	0	0	---	0.00	30.054 
21:20	32.8	32.8	32.8	87	29.4	0	0	---	0.00	30.055 
21:25	32.8	32.8	32.8	87	29.4	0	0	---	0.00	30.055 
21:30	32.8	32.8	32.8	87	29.4	0	0	---	0.00	30.054 
21:35	32.7	32.7	32.7	87	29.3	0	0	---	0.00	30.054 
21:40	32.7	32.7	32.7	87	29.3	0	0	---	0.00	30.055 
21:45	32.5	32.5	32.5	87	29.1	0	0	---	0.00	30.055 
21:50	32.5	32.5	32.5	88	29.3	0	0	---	0.00	30.055 
21:55	32.5	32.5	32.5	88	29.3	0	0	---	0.00	30.055 
22:00	32.5	32.5	32.5	88	29.3	0	0	---	0.00	30.055 
22:05	32.4	32.4	32.4	88	29.3	0	0	---	0.00	30.055 
22:10	32.4	32.4	32.4	88	29.3	0	0	---	0.00	30.055 
22:15	32.4	32.4	32.4	88	29.3	0	0	---	0.00	30.054 
22:20	32.5	32.5	32.5	88	29.3	0	0	---	0.00	30.055 
22:25	32.5	32.5	32.5	88	29.3	0	0	---	0.00	30.054 
22:30	32.5	32.5	32.5	88	29.3	0	0	---	0.00	30.053 
22:35	32.4	32.4	32.4	88	29.3	0	0	---	0.00	30.055 
22:40	32.4	32.4	32.4	88	29.3	0	0	---	0.00	30.055 
22:45	32.2	32.2	32.2	88	29.1	0	0	---	0.00	30.054 
22:50	32.1	32.1	32.1	88	29.0	0	0	---	0.00	30.053 
22:55	32.1	32.1	32.1	88	29.0	0	0	---	0.00	30.051 
23:00	31.9	31.9	31.9	88	28.8	0	0	---	0.00	30.051 
23:05	31.6	31.6	31.6	88	28.5	0	0	---	0.00	30.050 
23:10	31.5	31.5	31.5	88	28.4	0	0	---	0.00	30.051 
23:15	31.3	31.3	31.3	89	28.4	0	0	---	0.00	30.049 
23:20	31.2	31.2	31.2	89	28.3	0	0	---	0.00	30.050 
23:25	31.0	31.0	31.0	89	28.1	0	0	---	0.00	30.051 
23:30	30.9	30.9	30.9	89	28.0	0	0	---	0.00	30.052 
23:35	30.7	30.7	30.7	89	27.8	0	0	---	0.00	30.049 
23:40	30.4	30.4	30.4	89	27.6	0	0	---	0.00	30.053 
23:45	30.3	30.3	30.3	89	27.5	0	0	---	0.00	30.057 
23:50	30.1	30.1	30.1	89	27.3	0	0	---	0.00	30.058 
23:55	30.0	30.0	30.0	89	27.2	0	0	---	0.00	30.058 

CoCoRaHS
IN-AL-39
A2 Web Hosting
Creative Commons License
GoDaddy
Look for:

loaded 2017-12-13 15:47:57 • last modified 2010-11-18 10:43:29
Privacy PolicyDisclaimer
• wx.awcolley.com is powered by PmWiki v.2002016 •
• all content (unless otherwise noted) © 2017 A W Colley